Date String (YYYY-MM-DD hh:mm:ss) UTC,Instrument flags,Ambient pressure (hPa),Sample flow (lpm),Bypass flow (lpm),Sample temperature (°C),Ambient temperature (°C),ASC tube jacket temperature (°C),LED temperature (°C),Box temperature (°C),Sample RH (%),Span deviation,Mass concentration (μg/m³),Mass concentration (μg/m³),Mass concentration (μg/m³)
DateTimeUTC,F1_M11,P_M11,Q1_M11,Q2_M11,T1_M11,T2_M11,T3_M11,T4_M11,T5_M11,U1_M11,ZSPAN_M11,X0_M11,X2_M11,X1_M11
2021-09-22 05:00:00,,0838.0,5.00,0.00,29.8,28.8,00.0,39.0,31.4,11.5,0000.0,0012.45,0003.41,0002.67
2021-09-22 05:01:00,,0838.0,5.00,0.00,29.8,28.8,00.0,39.0,31.5,11.5,0000.0,0012.19,0003.37,0002.66
2021-09-22 05:02:00,,0838.0,4.99,0.00,29.8,28.8,00.0,39.0,31.4,11.5,0000.0,0012.19,0003.37,0002.66
2021-09-22 05:03:00,,0838.0,5.00,0.00,29.8,28.8,00.0,39.0,31.4,11.5,0000.0,0012.08,0003.34,0002.67
2021-09-22 05:04:00,,0838.0,5.00,0.00,29.8,28.8,00.0,39.0,31.4,11.5,0000.0,0011.93,0003.33,0002.68
2021-09-22 05:05:00,,0838.0,5.01,0.00,29.8,28.8,00.0,39.0,31.4,11.5,0000.0,0011.78,0003.35,0002.67
2021-09-22 05:06:00,,0838.0,4.99,0.00,29.8,28.8,00.0,39.0,31.4,11.5,0000.0,0010.96,0003.33,0002.66
2021-09-22 05:07:00,,0838.1,5.00,0.00,29.8,28.8,00.0,38.9,31.4,11.5,0000.0,0009.21,0003.34,0002.66
2021-09-22 05:08:00,,0838.0,5.00,0.00,29.7,28.8,00.0,38.9,31.4,11.4,0000.0,0008.31,0003.33,0002.65
2021-09-22 05:09:00,,0838.1,5.00,0.00,29.7,28.7,00.0,38.9,31.4,11.5,0000.0,0007.55,0003.30,0002.64
2021-09-22 05:10:00,,0838.0,5.00,0.00,29.7,28.7,00.0,38.9,31.4,11.5,0000.0,0007.41,0003.30,0002.63
2021-09-22 05:11:00,,0838.0,5.00,0.00,29.7,28.7,00.0,38.9,31.4,11.4,0000.0,0008.70,0003.33,0002.63
2021-09-22 05:12:00,,0838.0,4.99,0.00,29.7,28.7,00.0,38.9,31.4,11.4,0000.0,0009.07,0003.35,0002.63
2021-09-22 05:13:00,,0838.1,5.00,0.00,29.7,28.7,00.0,38.9,31.4,11.5,0000.0,0009.20,0003.36,0002.64
2021-09-22 05:14:00,,0838.0,4.99,0.00,29.7,28.7,00.0,38.9,31.4,11.4,0000.0,0009.65,0003.38,0002.62
2021-09-22 05:15:00,,0838.0,5.01,0.00,29.7,28.7,00.0,38.9,31.4,11.4,0000.0,0010.12,0003.39,0002.61
2021-09-22 05:16:00,,0838.0,5.01,0.00,29.7,28.7,00.0,38.9,31.4,11.4,0000.0,0010.08,0003.37,0002.60
2021-09-22 05:17:00,,0838.0,5.00,0.00,29.7,28.7,00.0,38.9,31.4,11.4,0000.0,0010.55,0003.38,0002.62
2021-09-22 05:18:00,,0838.0,4.99,0.00,29.7,28.8,00.0,38.9,31.4,11.4,0000.0,0010.83,0003.36,0002.62
2021-09-22 05:19:00,,0838.0,4.99,0.00,29.7,28.8,00.0,38.9,31.4,11.4,0000.0,0010.76,0003.36,0002.63
2021-09-22 05:20:00,,0838.0,5.00,0.00,29.7,28.8,00.0,38.9,31.4,11.4,0000.0,0011.13,0003.39,0002.65
2021-09-22 05:21:00,,0838.0,5.00,0.00,29.7,28.7,00.0,38.9,31.4,11.4,0000.0,0011.91,0003.36,0002.65
2021-09-22 05:22:00,,0838.0,5.00,0.00,29.7,28.7,00.0,38.9,31.4,11.4,0000.0,0010.58,0003.34,0002.63
2021-09-22 05:23:00,,0838.0,5.00,0.00,29.7,28.7,00.0,38.9,31.4,11.4,0000.0,0009.96,0003.34,0002.63
2021-09-22 05:24:00,,0838.0,5.01,0.00,29.7,28.7,00.0,38.9,31.4,11.4,0000.0,0009.87,0003.32,0002.64
2021-09-22 05:25:00,,0838.0,4.99,0.00,29.7,28.7,00.0,38.9,31.4,11.4,0000.0,0009.61,0003.35,0002.65
2021-09-22 05:26:00,,0838.0,5.01,0.00,29.7,28.7,00.0,38.9,31.4,11.4,0000.0,0009.17,0003.36,0002.66
2021-09-22 05:27:00,,0838.0,4.99,0.00,29.7,28.7,00.0,38.9,31.3,11.4,0000.0,0009.12,0003.38,0002.67
2021-09-22 05:28:00,,0838.0,5.00,0.00,29.7,28.7,00.0,38.9,31.3,11.4,0000.0,0008.96,0003.36,0002.66
2021-09-22 05:29:00,,0838.0,5.00,0.00,29.7,28.7,00.0,38.9,31.3,11.4,0000.0,0009.80,0003.38,0002.67
2021-09-22 05:30:00,,0838.0,5.00,0.00,29.7,28.7,00.0,38.9,31.3,11.5,0000.0,0010.37,0003.42,0002.68
2021-09-22 05:31:00,,0837.9,4.99,0.00,29.7,28.7,00.0,38.8,31.3,11.4,0000.0,0010.31,0003.44,0002.69
2021-09-22 05:32:00,,0838.0,5.00,0.00,29.6,28.7,00.0,38.8,31.3,11.4,0000.0,0009.42,0003.46,0002.70
2021-09-22 05:33:00,,0838.0,5.00,0.00,29.6,28.6,00.0,38.8,31.3,11.4,0000.0,0009.62,0003.47,0002.72
2021-09-22 05:34:00,,0838.0,5.00,0.00,29.6,28.6,00.0,38.8,31.3,11.4,0000.0,0010.01,0003.48,0002.73
2021-09-22 05:35:00,,0838.0,5.00,0.00,29.6,28.6,00.0,38.8,31.3,11.4,0000.0,0010.08,0003.48,0002.72
2021-09-22 05:36:00,,0838.0,4.99,0.00,29.6,28.6,00.0,38.8,31.3,11.4,0000.0,0009.89,0003.43,0002.70
2021-09-22 05:37:00,,0838.0,4.99,0.00,29.6,28.6,00.0,38.8,31.3,11.4,0000.0,0010.84,0003.40,0002.70
2021-09-22 05:38:00,,0838.0,5.02,0.00,29.6,28.7,00.0,38.8,31.3,11.4,0000.0,0011.52,0003.38,0002.69
2021-09-22 05:39:00,,0838.0,5.00,0.00,29.6,28.7,00.0,38.8,31.3,11.5,0000.0,0011.50,0003.37,0002.68
2021-09-22 05:40:00,,0838.0,5.00,0.00,29.6,28.7,00.0,38.8,31.3,11.5,0000.0,0010.45,0003.37,0002.68
2021-09-22 05:41:00,,0838.0,5.00,0.00,29.6,28.6,00.0,38.8,31.3,11.4,0000.0,0010.06,0003.37,0002.66
2021-09-22 05:42:00,,0838.0,4.99,0.00,29.6,28.6,00.0,38.8,31.3,11.4,0000.0,0009.97,0003.34,0002.65
2021-09-22 05:43:00,,0838.0,5.00,0.00,29.6,28.6,00.0,38.8,31.3,11.4,0000.0,0010.32,0003.29,0002.64
2021-09-22 05:44:00,,0838.0,5.00,0.00,29.6,28.6,00.0,38.8,31.3,11.4,0000.0,0010.17,0003.27,0002.63
2021-09-22 05:45:00,,0838.0,5.00,0.00,29.6,28.6,00.0,38.8,31.3,11.4,0000.0,0010.13,0003.25,0002.63
2021-09-22 05:46:00,,0838.0,5.01,0.00,29.6,28.6,00.0,38.8,31.3,11.4,0000.0,0010.19,0003.25,0002.64
2021-09-22 05:47:00,,0838.0,5.00,0.00,29.6,28.6,00.0,38.8,31.3,11.4,0000.0,0010.25,0003.28,0002.64
2021-09-22 05:48:00,,0838.0,5.00,0.00,29.6,28.6,00.0,38.8,31.2,11.4,0000.0,0010.06,0003.26,0002.63
2021-09-22 05:49:00,,0838.0,4.99,0.00,29.6,28.6,00.0,38.8,31.2,11.4,0000.0,0010.16,0003.28,0002.62
2021-09-22 05:50:00,,0838.0,5.01,0.00,29.6,28.6,00.0,38.8,31.2,11.4,0000.0,0010.52,0003.28,0002.60
2021-09-22 05:51:00,,0838.0,5.00,0.00,29.6,28.6,00.0,38.8,31.2,11.4,0000.0,0010.73,0003.26,0002.57
2021-09-22 05:52:00,,0838.0,5.00,0.00,29.6,28.5,00.0,38.7,31.2,11.3,0000.0,0010.68,0003.24,0002.55
2021-09-22 05:53:00,,0838.0,5.02,0.00,29.6,28.5,00.0,38.7,31.2,11.3,0000.0,0010.60,0003.24,0002.53
2021-09-22 05:54:00,,0837.9,5.00,0.00,29.6,28.5,00.0,38.7,31.2,11.3,0000.0,0010.19,0003.29,0002.53
2021-09-22 05:55:00,,0837.9,5.00,0.00,29.5,28.5,00.0,38.7,31.2,11.3,0000.0,0010.00,0003.31,0002.54
2021-09-22 05:56:00,,0838.0,5.01,0.00,29.5,28.5,00.0,38.7,31.2,11.3,0000.0,0009.42,0003.33,0002.53
2021-09-22 05:57:00,,0838.0,4.98,0.00,29.5,28.5,00.0,38.7,31.2,11.5,0000.0,0009.34,0003.35,0002.52
2021-09-22 05:58:00,,0838.0,5.00,0.00,29.5,28.5,00.0,38.7,31.2,11.6,0000.0,0009.56,0003.37,0002.51
2021-09-22 05:59:00,,0837.9,4.99,0.00,29.5,28.6,00.0,38.7,31.2,11.6,0000.0,0008.97,0003.37,0002.51
